Preview of NWS' New Version of Forecast
This preview is not operational and should not be used for support decisions.

Regional Weather Roundup (RWR)

Issued by National Weather Service (NWS)

                            
000
ASUS43 KTOP 190559
RWRKS 

WEATHER ROUNDUP FOR KANSAS
NATIONAL WEATHER SERVICE GOODLAND KS
100 AM CDT MON AUG 19 2019

NOTE:  "FAIR" INDICATES FEW OR NO CLOUDS BELOW 12,000 FEET WITH NO
SIGNIFICANT WEATHER AND/OR OBSTRUCTIONS TO VISIBILITY.

KSZ001>006-013>018-027>032-041>047-190700-
NORTHWEST KANSAS
  
CITY           SKY/WX    TMP DP  RH WIND       PRES   REMARKS
GOODLAND       CLEAR     67  66  97 SE6       29.99S                  
6HR MIN TEMP:  67; 6HR MAX TEMP:  83;                                

HAYS           CLEAR     72  70  93 SE8       29.85S                  
HILL CITY      CLEAR     71  68  90 E6        29.95S                  
6HR MIN TEMP:  71; 6HR MAX TEMP:  86;                                

RUSSELL        CLEAR     73  69  87 SE9       29.93S                  
6HR MIN TEMP:  73; 6HR MAX TEMP:  85;                                

$$

KSZ061>065-074>080-084>089-190700-
SOUTHWEST KANSAS
  
CITY           SKY/WX    TMP DP  RH WIND       PRES   REMARKS
DODGE CITY     CLEAR     73  68  84 SE10      29.95S                  
6HR MIN TEMP:  73; 6HR MAX TEMP:  91;                                

GARDEN CITY    CLEAR     73  67  81 SE12      29.95S                  
6HR MIN TEMP:  70; 6HR MAX TEMP:  91;                                

GREAT BEND     CLEAR     75  71  87 E8        29.95R                  
LIBERAL        CLEAR     76  68  76 E10       29.97S                  
$$

KSZ066>073-081>083-090>101-190700-
SOUTHEAST KANSAS
  
CITY           SKY/WX    TMP DP  RH WIND       PRES   REMARKS
CHANUTE        PTCLDY    78  74  87 SE7       29.93S                  
6HR MIN TEMP:  78; 6HR MAX TEMP:  88;                                

COFFEYVILLE    PTCLDY    78  73  84 SE3       29.91S                  
6HR MIN TEMP:  78; 6HR MAX TEMP:  86;                                

HUTCHINSON     CLEAR     77  72  84 SE8       29.92S                  
6HR MIN TEMP:  76; 6HR MAX TEMP:  88;                                

MEDICINE LODGE   N/A     80  74  81 E8        29.90F                  
NEWTON         CLEAR     74  73  97 SE9       29.95S                  
PARSONS        MOCLDY    78  73  84 CALM      29.94S                  
6HR MIN TEMP:  78; 6HR MAX TEMP:  86;                                

WICHITA INTL   MOCLDY    81  75  82 SE9       29.92S                  
6HR MIN TEMP:  80; 6HR MAX TEMP:  89;                                

WICHITA JABRA  CLOUDY    78  75  90 SE7       29.93S                  
6HR MIN TEMP:  77; 6HR MAX TEMP:  86;                                

WICHITA MCCONL MOCLDY    79  73  80 E9        29.93S                  
WINFIELD       MOCLDY    80  74  81 SE6       29.93S                  
6HR MIN TEMP:  80; 6HR MAX TEMP:  87;                                

$$

KSZ007>012-019>026-033>040-048>060-102>105-190700-
NORTHEAST KANSAS
  
CITY           SKY/WX    TMP DP  RH WIND       PRES   REMARKS
CONCORDIA      CLEAR     71  69  93 E6        29.95R                  
6HR MIN TEMP:  71; 6HR MAX TEMP:  87;                                

EMPORIA        CLEAR     74  73  97 S7        29.93S                  
6HR MIN TEMP:  73; 6HR MAX TEMP:  87;                                

LAWRENCE       MOCLDY    76  72  87 NE5       29.93R                  
6HR MIN TEMP:  75; 6HR MAX TEMP:  89;                                

MANHATTAN      CLEAR     74  71  91 NE5       29.93R                  
6HR MIN TEMP:  74; 6HR MAX TEMP:  88;                                

OLATHE IND     CLEAR     76  72  87 SE5       29.95R                  
6HR MIN TEMP:  74; 6HR MAX TEMP:  85;                                

OLATHE EXE     CLEAR     75  73  93 CALM      29.94S                  
6HR MIN TEMP:  74; 6HR MAX TEMP:  84;                                

SALINA         CLEAR     75  70  84 SE5       29.93R                  
6HR MIN TEMP:  75; 6HR MAX TEMP:  87;                                

TOPEKA BILLARD CLEAR     75  70  84 NE7       29.93R                  
6HR MIN TEMP:  75; 6HR MAX TEMP:  87;                                

TOPEKA FORBES  CLEAR     75  71  87 N6        29.94R                  
6HR MIN TEMP:  75; 6HR MAX TEMP:  89;                                

$$